(204380) = 2004 TR121

Discovered at Anderson Mesa on 2004-10-07 by LONEOS.

Orbit

Orbit type: Main Belt

Note: WebGL enabled browser required.

epoch2024-03-31.0
epoch JD2460400.5
perihelion date2023-08-04.85172
perihelion JD2460161.35172
argument of perihelion (°)175.57585
ascending node (°)237.44296
inclination (°)2.51408
eccentricity0.1170845
perihelion distance (AU)2.1141502
Tisserand w.r.t. Jupiter3.5
ΔV w.r.t. Earth (km/sec)9.1
semimajor axis (AU)2.3945103
mean anomaly (°)63.61306
mean daily motion (°/day)0.26599840
aphelion distance (AU)2.675
period (years)3.71
P-vector [x]0.60149021
P-vector [y]0.73160569
P-vector [z]0.32087792
Q-vector [x]-0.79802419
Q-vector [y]0.56883655
Q-vector [z]0.19895317
absolute magnitude17.13
phase slope0.15
uncertainty0
referenceE2024-GD4
observations used513
oppositions15
arc length (days)8623
first opposition used2000
last opposition used2024
residual rms (arc-secs)0.77
perturbers coarse indicatorM-v
perturbers precise indicator003Ek
first observation date used2000-08-30.0
last observation date used2024-04-09.0
computer nameMPCLINUX
JD of orbit computation2456847.810666
perihelion JD uncertainty (days)7.3310E-05
argument of perihelion uncertainty (°)7.9789E-05
ascending node uncertainty (°)7.7999E-05
inclination uncertainty (°)3.8354E-06
eccentricity uncertainty 3.6454E-08
perihelion distance uncertainty (AU)8.3863E-08
Minimum Orbit Intersection Distances (in AU)
for orbit epoch: 2460400.5, reference: E2024-GD4
Mercury1.79912
Venus1.39219
Earth1.12546
Mars0.59373
Jupiter2.63698
Saturn6.84269
Uranus15.9188
Neptune27.6786

Observations

522 total observations over interval: 2000 08 30.29323 – 2024 01 07.490773
These data are available for download (format description).

Date (UT) J2000 RA J2000 Dec Magn Location Ref
2000 08 30.29323 22 06 21.21 -06 57 02.0 20.6 V 691 – Steward Observatory, Kitt Peak-Spacewatch MPS 120575
2000 08 30.31411 22 06 20.03 -06 57 09.2 20.8 V 691 – Steward Observatory, Kitt Peak-Spacewatch MPS 120575
2000 08 30.33533 22 06 18.82 -06 57 15.8 20.9 V 691 – Steward Observatory, Kitt Peak-Spacewatch MPS 120575
2002 02 06.35519 09 27 55.35 +10 27 06.3 20.3   644 – Palomar Mountain/NEAT MPS 120575
2002 02 06.37980 09 27 53.83 +10 27 13.6 20.2   644 – Palomar Mountain/NEAT MPS 120575
2002 02 06.40098 09 27 52.53 +10 27 18.1 20.4   644 – Palomar Mountain/NEAT MPS 120575
2002 02 11.25552 09 22 59.91 +10 50 18.6 20.4   704 – Lincoln Laboratory ETS, New Mexico MPS 120575
2002 02 11.28376 09 22 58.08 +10 50 27.7 20.2   704 – Lincoln Laboratory ETS, New Mexico MPS 120575
2002 02 11.29789 09 22 57.20 +10 50 33.0 20.2   704 – Lincoln Laboratory ETS, New Mexico MPS 120575
2002 02 16.35787 09 17 59.52 +11 14 57.0 20.5   644 – Palomar Mountain/NEAT MPS 120575
2002 02 16.37995 09 17 58.23 +11 15 03.1 20.4   644 – Palomar Mountain/NEAT MPS 120575
2002 02 16.41271 09 17 56.29 +11 15 12.4 20.4   644 – Palomar Mountain/NEAT MPS 120575
2004 09 10.42542 01 31 51.81 +12 58 31.6 20.3 V 691 – Steward Observatory, Kitt Peak-Spacewatch MPS 119314
2004 09 10.45409 01 31 51.23 +12 58 29.0 20.2 V 691 – Steward Observatory, Kitt Peak-Spacewatch MPS 119314
2004 09 10.48304 01 31 50.65 +12 58 26.2 20.3 V 691 – Steward Observatory, Kitt Peak-Spacewatch MPS 119314
2004 10 07.17774 01 14 52.79 +11 07 04.4 18.9 R 699 – Lowell Observatory-LONEOS MPS 117832
2004 10 07.19719 01 14 51.76 +11 06 56.6   699 – Lowell Observatory-LONEOS MPS 117832
2004 10 07.21666 01 14 50.65 +11 06 48.0   699 – Lowell Observatory-LONEOS MPS 117832
2004 10 07.23614 01 14 49.66 +11 06 40.7   699 – Lowell Observatory-LONEOS MPS 117832
2004 10 07.27041 01 14 47.75 +11 06 28.9 19.5 V 691 – Steward Observatory, Kitt Peak-Spacewatch MPS 117832
2004 10 07.29801 01 14 46.22 +11 06 18.6 19.5 V 691 – Steward Observatory, Kitt Peak-Spacewatch MPS 117832
2004 10 07.32444 01 14 44.76 +11 06 08.4 19.5 V 691 – Steward Observatory, Kitt Peak-Spacewatch MPS 117832
2004 10 09.25825 01 13 02.60 +10 53 43.7 19.4   704 – Lincoln Laboratory ETS, New Mexico MPS 117832
2004 10 09.26919 01 13 02.02 +10 53 38.9 19.4   704 – Lincoln Laboratory ETS, New Mexico MPS 117832
2004 10 09.28014 01 13 01.33 +10 53 34.3 20.1   704 – Lincoln Laboratory ETS, New Mexico MPS 117832
2004 10 09.29108 01 13 00.79 +10 53 31.1 19.5   704 – Lincoln Laboratory ETS, New Mexico MPS 117832
2004 10 11.26719 01 11 15.23 +10 40 28.7 19.3 V 691 – Steward Observatory, Kitt Peak-Spacewatch MPS 117832
2004 10 11.29453 01 11 13.69 +10 40 17.6 19.3 V 691 – Steward Observatory, Kitt Peak-Spacewatch MPS 117832
2004 10 11.32597 01 11 11.91 +10 40 05.2 19.4 V 691 – Steward Observatory, Kitt Peak-Spacewatch MPS 117832
2004 10 15.23392 01 07 42.61 +10 13 33.6 19.3 V 691 – Steward Observatory, Kitt Peak-Spacewatch MPS 117832
2004 10 15.26065 01 07 41.12 +10 13 22.4 19.4 V 691 – Steward Observatory, Kitt Peak-Spacewatch MPS 117832
2004 10 15.28746 01 07 39.62 +10 13 11.5 19.3 V 691 – Steward Observatory, Kitt Peak-Spacewatch MPS 117832
2004 11 10.07416 00 49 50.23 +07 34 18.3 20.2 V 691 – Steward Observatory, Kitt Peak-Spacewatch MPS 119314
2004 11 10.10045 00 49 49.57 +07 34 10.8 20.4 V 691 – Steward Observatory, Kitt Peak-Spacewatch MPS 119314
2004 11 10.11852 00 49 49.12 +07 34 06.1 20.4 V 691 – Steward Observatory, Kitt Peak-Spacewatch MPS 119314
2006 02 25.35070 11 59 38.72 -03 55 42.6 20.6 V 691 – Steward Observatory, Kitt Peak-Spacewatch MPS 165103
2006 02 25.36802 11 59 37.94 -03 55 38.1 20.7 V 691 – Steward Observatory, Kitt Peak-Spacewatch MPS 165103
2006 02 25.38534 11 59 37.12 -03 55 33.6 20.6 V 691 – Steward Observatory, Kitt Peak-Spacewatch MPS 165103
2006 03 04.33987 11 54 04.03 -03 20 55.8   691 – Steward Observatory, Kitt Peak-Spacewatch MPS 166093
2006 03 04.35726 11 54 03.09 -03 20 49.8   691 – Steward Observatory, Kitt Peak-Spacewatch MPS 166093
2006 03 04.37466 11 54 02.17 -03 20 44.3   691 – Steward Observatory, Kitt Peak-Spacewatch MPS 166093
2006 03 05.27749 11 53 15.94 -03 15 44.3 20.4 V 691 – Steward Observatory, Kitt Peak-Spacewatch MPS 166093
2006 03 05.29489 11 53 15.00 -03 15 38.4 20.6 V 691 – Steward Observatory, Kitt Peak-Spacewatch MPS 166093
2006 03 05.31231 11 53 14.07 -03 15 32.8 20.7 V 691 – Steward Observatory, Kitt Peak-Spacewatch MPS 166093
2006 03 08.33324 11 50 34.73 -02 58 07.2 20.4 V 691 – Steward Observatory, Kitt Peak-Spacewatch MPS 166093
2006 03 08.35059 11 50 33.79 -02 58 01.0 20.6 V 691 – Steward Observatory, Kitt Peak-Spacewatch MPS 166093
2006 03 08.36926 11 50 32.70 -02 57 54.1 20.5 V 691 – Steward Observatory, Kitt Peak-Spacewatch MPS 166093
2008 09 25.46083 05 01 17.32 +23 13 24.3 20.6 V G96 – Mt. Lemmon Survey MPS 256681
2008 09 25.46645 05 01 17.65 +23 13 23.9 20.9 V G96 – Mt. Lemmon Survey MPS 256681
2008 09 25.47192 05 01 17.94 +23 13 25.1 20.9 V G96 – Mt. Lemmon Survey MPS 256681
2008 09 25.47748 05 01 18.30 +23 13 24.7 20.6 V G96 – Mt. Lemmon Survey MPS 256681
2008 10 03.39298 05 07 58.51 +23 14 00.7 20.9 V G96 – Mt. Lemmon Survey MPS 257918
2008 10 03.39914 05 07 58.80 +23 14 00.6 20.4 V G96 – Mt. Lemmon Survey MPS 257918
2008 10 03.40542 05 07 59.05 +23 14 00.5 20.6 V G96 – Mt. Lemmon Survey MPS 257918
2008 10 03.41149 05 07 59.30 +23 14 00.6 20.2 V G96 – Mt. Lemmon Survey MPS 257918
2008 11 06.43494 05 12 52.81 +22 32 34.1 19.2 V G96 – Mt. Lemmon Survey MPS 263192
2008 11 06.43939 05 12 52.66 +22 32 33.7 19.5 V G96 – Mt. Lemmon Survey MPS 263192
2008 11 06.44384 05 12 52.52 +22 32 33.0 19.6 V G96 – Mt. Lemmon Survey MPS 263192
2008 11 06.44827 05 12 52.38 +22 32 32.3 19.4 V G96 – Mt. Lemmon Survey MPS 263192
2008 11 17.44739 05 05 35.40 +22 04 55.1 19.6 V 691 – Steward Observatory, Kitt Peak-Spacewatch MPS 265235
2008 11 17.46503 05 05 34.47 +22 04 50.9 19.8 V 691 – Steward Observatory, Kitt Peak-Spacewatch MPS 265235
2008 11 17.48267 05 05 33.65 +22 04 48.1 20.4 V 691 – Steward Observatory, Kitt Peak-Spacewatch MPS 265235
2008 11 24.26035 04 59 24.75 +21 44 35.1 19.7   704 – Lincoln Laboratory ETS, New Mexico MPS 266435
2008 11 24.27288 04 59 23.83 +21 44 32.0 19.7   704 – Lincoln Laboratory ETS, New Mexico MPS 266435
2008 11 24.28543 04 59 23.07 +21 44 30.3 20.1   704 – Lincoln Laboratory ETS, New Mexico MPS 266435
2008 11 24.29813 04 59 22.28 +21 44 27.4 19.7   704 – Lincoln Laboratory ETS, New Mexico MPS 266435
2008 11 24.31111 04 59 21.47 +21 44 25.2 19.9   704 – Lincoln Laboratory ETS, New Mexico MPS 266435
2008 11 30.24243 04 53 18.51 +21 25 08.8 19.7 V 691 – Steward Observatory, Kitt Peak-Spacewatch MPS 267503
2008 11 30.26006 04 53 17.36 +21 25 05.5 19.6 V 691 – Steward Observatory, Kitt Peak-Spacewatch MPS 267503
2008 11 30.27769 04 53 16.35 +21 25 01.6 19.2 V 691 – Steward Observatory, Kitt Peak-Spacewatch MPS 267503
2008 12 01.26102 04 52 14.07 +21 21 45.4 19.0   704 – Lincoln Laboratory ETS, New Mexico MPS 267503
2008 12 01.27365 04 52 13.18 +21 21 42.1 20.5   704 – Lincoln Laboratory ETS, New Mexico MPS 267503
2008 12 01.28631 04 52 12.39 +21 21 39.5 19.6   704 – Lincoln Laboratory ETS, New Mexico MPS 267503
2008 12 01.29894 04 52 11.58 +21 21 36.8 19.7   704 – Lincoln Laboratory ETS, New Mexico MPS 267503
2008 12 02.44134 04 50 58.52 +21 17 45.7   291 – LPL/Spacewatch II MPS 267503
2008 12 02.44596 04 50 58.20 +21 17 44.7   291 – LPL/Spacewatch II MPS 267503
2008 12 02.45225 04 50 57.80 +21 17 43.5   291 – LPL/Spacewatch II MPS 267503
2008 12 21.25202 04 32 23.50 +20 16 39.4 19.4   704 – Lincoln Laboratory ETS, New Mexico MPS 269250
2008 12 21.26463 04 32 22.75 +20 16 35.2 19.8   704 – Lincoln Laboratory ETS, New Mexico MPS 269250
2008 12 21.27724 04 32 22.19 +20 16 34.6 19.6   704 – Lincoln Laboratory ETS, New Mexico MPS 269250
2008 12 21.28998 04 32 21.52 +20 16 31.4 19.6   704 – Lincoln Laboratory ETS, New Mexico MPS 269250
2008 12 21.30259 04 32 20.81 +20 16 29.4 19.8   704 – Lincoln Laboratory ETS, New Mexico MPS 269250
2008 12 29.20088 04 26 44.27 +19 56 25.4 19.8   704 – Lincoln Laboratory ETS, New Mexico MPS 270123
